This demonstration page uses our WeatherBlox Daily Observations layout. Learn more.

Left ArrowRight Arrow

39.08367, -84.50855

Hourly Observations for June 15, 2020

Temp ( °F °C ) Dew Point ( °F °C ) Humidity (%) Winds ( mph kmh ) Pressure ( in mb ) Visibility ( mi km ) Precip ( " mm )
12:53 am 00:53 Clear 58 14.4 50 10 75 75 NE 5 7 30.26 1025 10 16.0934 0 0
1:53 am 01:53 Clear 54 12.2 51 10.6 90 90 Calm 30.26 1025 10 16.0934 0 0
2:53 am 02:53 Clear 55 12.8 50 10 83 83 Calm 30.26 1025 10 16.0934 0 0
3:53 am 03:53 Clear 54 12.2 49 9.4 83 83 Calm 30.26 1025 10 16.0934 0 0
4:53 am 04:53 Clear 51 10.6 48 8.9 89 89 Calm 30.27 1025 10 16.0934 0 0
5:53 am 05:53 Clear 50 10 47 8.3 89 89 Calm 30.28 1026 10 16.0934 0 0
6:53 am 06:53 Mostly Cloudy 53 11.7 49 9.4 86 86 Calm 30.29 1026 10 16.0934 0 0
7:53 am 07:53 Mostly Sunny 58 14.4 48 8.9 70 70 NNE 8 13 30.29 1026 10 16.0934 0 0
8:53 am 08:53 Partly Cloudy 60 15.6 50 10 70 70 NNE 6 9 30.31 1026 10 16.0934 0 0
12:53 pm 12:53 Mostly Cloudy 71 21.7 57 13.9 61 61 Calm 30.29 1026 10 16.09 0 0
1:53 pm 13:53 Mostly Cloudy 73 22.8 58 14.4 59 59 Calm 30.29 1026 10 16.09 0 0
2:53 pm 14:53 Partly Cloudy 74 23.3 57 13.9 56 56 ENE 10 17 30.27 1025 10 16.09 0 0
3:53 pm 15:53 Mostly Cloudy 75 23.9 56 13.3 52 52 ESE 10 17 30.26 1025 10 16.09 0 0
4:53 pm 16:53 Mostly Cloudy 74 23.3 54 12.2 50 50 E 7 11 30.26 1025 10 16.09 0 0
5:53 pm 17:53 Mostly Sunny 77 25 53 11.7 43 43 NE 8 13 30.25 1024 10 16.09 0 0
6:53 pm 18:53 Sunny 77 25 54 12.2 45 45 NE 7 11 30.25 1025 10 16.0934 0 0
7:53 pm 19:53 Mostly Sunny 75 23.9 55 12.8 50 50 E 9 15 30.26 1025 10 16.0934 0 0
8:53 pm 20:53 Sunny 71 21.7 57 13.9 61 61 Calm 30.26 1025 10 16.0934 0 0
9:53 pm 21:53 Clear 66 18.9 59 15 78 78 Calm 30.27 1025 10 16.0934 0 0
10:53 pm 22:53 Clear 62 16.7 58 14.4 86 86 Calm 30.28 1026 10 16.0934 0 0
11:53 pm 23:53 Clear 60 15.6 58 14.4 93 93 NE 3 6 30.29 1026 10 16.0934 0 0

Powered by AerisWeather